[[{"header":{"parameterUnit":"m.s-1","parameterCategory":1,"la1":30.2991,"la2":30.254,"lo1":-89.0895,"lo2":-89.0444,"dy":0.0017,"dx":0.0017,"nx":28,"ny":28,"refTime":"2024-04-02T21:00:00:Z","depth":0,"parameterNumber":2,"parameterNumberName":"U-component_of_WINDS"},"data":[0,0,0,0,0,0,0,0,0,0,0,0,0,0,0,0,0,0,0,0,0,0,0,0,0,0,0,0,0,0,0,0,0,0,0,0,0,0,0,0,0,0,0,0,0,0,0,0,0,0,0,0,0,0,0,0,0,0,2.5089,2.5089,0,2.5106,2.5106,2.5106,2.5068,2.5067,2.5066,2.5065,2.5084,2.5085,2.5087,0,0,0,0,0,0,0,0,0,0,0,0,0,2.5025,2.5026,2.5089,2.5089,2.5089,2.5106,2.5106,2.5106,2.5069,2.5067,2.5066,2.5064,2.5083,2.5085,2.5087,0,0,0,0,0,0,0,0,0,0,0,0,0,2.5048,2.5027,2.5089,2.5072,2.5071,2.5106,2.5106,2.5106,2.5069,2.5067,2.5065,2.5064,2.5083,2.5085,2.5088,2.5139,0,0,2.5095,2.5096,0,0,0,0,0,0,0,0,2.5047,2.5051,2.5075,2.5074,2.5072,2.5083,2.509,2.5118,2.5069,2.507,2.5065,2.5063,2.5085,2.5087,2.5095,2.514,2.5141,2.5095,2.5097,2.5098,2.5099,0,0,0,0,0,0,0,2.5046,2.505,2.5096,2.5075,2.5074,2.5065,2.5066,2.5095,2.5088,2.507,2.5067,2.5069,2.5084,2.5092,2.5095,2.5141,2.5095,2.5097,2.5099,2.51,2.523,2.5232,0,0,0,0,0,0,2.5046,2.5049,2.5095,2.5096,2.5055,2.5067,2.5069,2.5082,2.5087,2.5086,2.5071,2.5068,2.5089,2.5092,2.5095,2.5156,2.5098,2.51,2.5102,2.5228,2.5231,2.5233,0,0,0,0,0,0,2.5045,2.505,2.5094,2.5072,2.5077,2.507,2.5085,2.5083,2.5091,2.5088,2.5087,2.5081,2.5088,2.5092,2.5129,2.5156,2.5101,2.5104,2.5226,2.5229,2.5232,2.5278,0,0,0,0,0,0,2.5043,2.505,2.5069,2.5072,2.5078,2.5127,2.5087,2.5084,2.5095,2.5091,2.5097,2.5096,2.5087,2.5125,2.5131,2.5158,2.5105,2.5223,2.5227,2.5231,2.5274,2.5282,2.5289,0,0,0,0,0,2.5041,2.5082,2.5071,2.5076,2.5102,2.5129,2.5132,2.512,2.5097,2.5117,2.5115,2.5096,2.5152,2.5129,2.5135,2.5164,2.5222,2.5226,2.523,2.5271,2.5281,2.5289,0,0,0,0,0,0,2.5083,2.5082,2.5069,2.5113,2.5121,2.5122,2.5147,2.5131,2.5146,2.5141,2.5126,2.5128,2.5167,2.5169,2.5144,2.5214,2.5183,2.5189,2.5211,2.5221,2.5228,2.5227,2.5107,0,0,0,0,0,2.5098,2.5119,2.5117,2.5156,2.5161,2.5153,2.5164,2.5154,2.5162,2.5165,2.5166,2.5175,2.5195,2.5208,2.5226,2.5274,2.5275,2.5297,2.5305,2.5311,2.5316,2.5341,2.5351,2.5247,2.5247,2.5247,0,0,2.5128,2.513,2.5144,2.5165,2.517,2.5192,2.5156,2.5182,2.5199,2.517,2.5204,2.5205,2.5214,2.5256,2.5275,2.5259,2.5345,2.5317,2.5322,2.5323,2.5347,2.5357,2.5365,2.525,2.525,2.5249,0,0,2.5194,2.5198,2.523,2.5236,2.5244,2.5239,2.5246,2.525,2.5249,2.5283,2.5262,2.5282,2.5316,2.5323,2.5331,2.54,2.5383,2.5406,2.5446,2.5471,2.5479,2.5486,2.551,2.5519,2.5412,2.5412,2.5412,0,2.523,2.5263,2.5249,2.5276,2.5285,2.526,2.5292,2.5299,2.5313,2.532,2.5302,2.5344,2.5348,2.5392,2.5408,2.5416,2.5424,2.5405,2.5479,2.5486,2.5492,2.5515,2.5524,2.5415,2.5414,2.5414,2.5414,0,2.5307,2.5331,2.5356,2.5369,2.5381,2.5411,2.5402,2.5416,2.5405,2.5402,2.5437,2.5441,2.5459,2.5469,2.5458,2.5511,2.5501,2.5481,2.5449,2.5505,2.5526,2.5535,2.5419,2.5418,2.5417,2.5416,0,0,2.54,2.5405,2.5415,2.542,2.5427,2.5445,2.5474,2.5491,2.5503,2.5514,2.5537,2.5567,2.5548,2.5558,2.5548,2.557,2.5623,2.5547,2.5547,2.5561,2.568,2.5694,2.5705,2.5612,2.5613,2.5615,2.5679,0,2.5465,2.5514,2.5502,2.555,2.5571,2.5547,2.5572,2.5579,2.5577,2.5595,2.5593,2.5613,2.5588,2.5593,2.5614,2.5612,2.5647,2.5608,2.5633,2.5635,2.5631,2.5716,2.5731,2.5791,2.5687,2.5689,2.569,0,2.5547,2.556,2.561,2.5613,2.5622,2.5644,2.5659,2.5676,2.5684,2.5681,2.5691,2.5677,2.5705,2.5674,2.5713,2.5686,2.5696,2.5697,2.5699,2.5701,2.5665,2.5719,2.581,2.5819,2.5703,2.5702,2.5701,0,2.5609,2.5639,2.5673,2.5678,2.5683,2.5699,2.5702,2.5708,2.5719,2.5732,2.5739,2.5755,2.5764,2.5777,2.5768,2.5746,2.5809,2.5776,2.5806,2.5807,2.582,2.5819,2.5914,2.5828,2.5828,2.5828,2.5828,0,2.5682,2.5713,2.57,2.5721,2.5756,2.5742,2.5777,2.5777,2.5782,2.5803,2.5784,2.5803,2.579,2.5809,2.5802,2.5835,2.584,2.5838,2.5835,2.5839,2.5839,2.5845,2.584,2.583,2.583,2.5829,2.5829,0,2.5756,2.5749,2.5784,2.5786,2.5787,2.5812,2.5814,2.5833,2.5829,2.5855,2.5861,2.5855,2.5876,2.5868,2.5891,2.5886,2.5928,2.5921,2.5925,2.5923,2.5953,2.595,2.6055,2.6067,2.5974,2.5975,2.5976,0,2.5803,2.5827,2.5831,2.5843,2.5847,2.5867,2.5877,2.5865,2.5877,2.5888,2.5906,2.5925,2.594,2.5974,2.5972,2.599,2.5982,2.6017,2.5984,2.5987,2.5981,2.598,2.5982,2.6024,2.6025,2.6026,2.6026,0,2.5886,2.5882,2.5898,2.5913,2.5926,2.5938,2.5948,2.5959,2.5947,2.5962,2.5983,2.5994,2.6017,2.6036,2.6051,2.6054,2.6038,2.6037,2.6044,2.6048,2.6049,2.6048,2.5942,2.6034,2.6033,2.6033,2.6032,2.6032,2.5948,2.5967,2.5973,2.5992,2.5998,2.6007,2.6025,2.6024,2.6041,2.6058,2.605,2.6074,2.6081,2.61,2.6105,2.6124,2.611,2.6122,2.6124,2.6127,2.6131,2.6047,2.6127,2.6127,2.6126,2.6126,2.6126,0,2.6029,2.6032,2.6049,2.6063,2.6078,2.6062,2.6072,2.6085,2.6106,2.6114,2.6129,2.6153,2.6171,2.6171,2.6188,2.6203,2.6196,2.6208,2.6206,2.6207,2.6142,2.6134,2.6213,2.6213,2.6213,2.6213,2.6213,2.6213,2.6073,2.6105,2.6101,2.6136,2.6139,2.6162,2.6169,2.6177,2.6183,2.6211,2.6226,2.6225,2.623,2.6247,2.6263,2.6263,2.6269,2.6284,2.628,2.622,2.6211,2.6203,2.6195,2.6286,2.6286,2.6343,2.6344,2.6344]},{"header":{"parameterUnit":"m.s-1","parameterCategory":1,"la1":30.2991,"la2":30.254,"lo1":-89.0895,"lo2":-89.0444,"dy":0.0017,"dx":0.0017,"nx":28,"ny":28,"refTime":"2024-04-02T21:00:00:Z","depth":0,"parameterNumber":3,"parameterNumberName":"V-component_of_WINDS"},"data":[0,0,0,0,0,0,0,0,0,0,0,0,0,0,0,0,0,0,0,0,0,0,0,0,0,0,0,0,0,0,0,0,0,0,0,0,0,0,0,0,0,0,0,0,0,0,0,0,0,0,0,0,0,0,0,0,0,0,4.811,4.8113,0,4.8398,4.8401,4.8404,4.8477,4.8475,4.8473,4.8471,4.8769,4.8778,4.8788,0,0,0,0,0,0,0,0,0,0,0,0,0,4.7625,4.7634,4.811,4.8113,4.8117,4.8397,4.8401,4.8405,4.8477,4.8475,4.8472,4.847,4.8766,4.8777,4.8789,0,0,0,0,0,0,0,0,0,0,0,0,0,4.7867,4.7637,4.8109,4.8186,4.8196,4.8396,4.8401,4.8406,4.8477,4.8475,4.8472,4.8469,4.8762,4.8776,4.879,4.8935,0,0,4.8834,4.8841,0,0,0,0,0,0,0,0,4.7853,4.7884,4.8171,4.8181,4.8193,4.8398,4.834,4.8583,4.8478,4.8371,4.8471,4.8468,4.8648,4.8672,4.8732,4.8949,4.8961,4.8836,4.8844,4.8851,4.8855,0,0,0,0,0,0,0,4.7836,4.7873,4.8224,4.8176,4.8189,4.8208,4.8239,4.8386,4.8521,4.838,4.8386,4.8419,4.8653,4.8718,4.8739,4.8966,4.8835,4.8848,4.8857,4.8863,4.9318,4.9321,0,0,0,0,0,0,4.7806,4.7858,4.8215,4.8232,4.8012,4.8219,4.8254,4.8335,4.852,4.8545,4.8421,4.8421,4.8694,4.8722,4.875,4.8933,4.8851,4.8864,4.8872,4.9314,4.9318,4.9322,0,0,0,0,0,0,4.7795,4.7837,4.8203,4.8047,4.8095,4.823,4.8321,4.8342,4.8407,4.8551,4.8576,4.8461,4.8693,4.873,4.8889,4.8944,4.8871,4.8884,4.931,4.9315,4.932,4.9299,0,0,0,0,0,0,4.7781,4.7832,4.7888,4.8048,4.8103,4.8336,4.8324,4.835,4.8431,4.8434,4.8596,4.862,4.8694,4.8866,4.8903,4.8963,4.8895,4.9306,4.9312,4.9319,4.9295,4.9302,4.9309,0,0,0,0,0,4.7763,4.7871,4.789,4.7933,4.8175,4.8339,4.837,4.8453,4.8435,4.8493,4.8586,4.8615,4.8932,4.8882,4.8924,4.8989,4.9303,4.9311,4.9318,4.9292,4.9301,4.9308,0,0,0,0,0,0,4.7715,4.7893,4.7917,4.8079,4.8193,4.835,4.8426,4.8459,4.8581,4.8579,4.8677,4.8713,4.8865,4.8943,4.8884,4.9139,4.9117,4.9134,4.9083,4.9093,4.91,4.9079,4.8907,0,0,0,0,0,4.7723,4.784,4.799,4.8118,4.8174,4.829,4.8364,4.8417,4.854,4.8589,4.8693,4.8811,4.8938,4.902,4.9144,4.9306,4.9343,4.9371,4.9378,4.9383,4.9396,4.949,4.9504,4.9347,4.9347,4.9347,0,0,4.7742,4.7853,4.7921,4.8112,4.8206,4.8326,4.833,4.8457,4.8547,4.8608,4.8765,4.8845,4.8984,4.9145,4.9222,4.9215,4.9448,4.9393,4.9395,4.9407,4.9499,4.9514,4.9527,4.9352,4.9351,4.9351,0,0,4.7837,4.7932,4.8051,4.8145,4.8288,4.8364,4.8392,4.8545,4.8601,4.8759,4.8808,4.8917,4.9132,4.923,4.9308,4.9439,4.9471,4.9477,4.9514,4.9603,4.9616,4.9627,4.9676,4.9692,4.949,4.949,4.949,0,4.7842,4.8024,4.8107,4.8232,4.8315,4.8375,4.8496,4.8584,4.8761,4.8817,4.8806,4.9079,4.9176,4.9362,4.9394,4.9454,4.9491,4.946,4.9607,4.9619,4.9631,4.9679,4.9697,4.949,4.949,4.949,4.949,0,4.8024,4.815,4.8228,4.8396,4.8488,4.861,4.8713,4.8796,4.8841,4.8919,4.908,4.9199,4.9349,4.9397,4.9442,4.959,4.9581,4.9587,4.9568,4.9645,4.9691,4.971,4.9489,4.9489,4.9489,4.949,0,0,4.8099,4.8311,4.8339,4.8416,4.8578,4.8677,4.8802,4.8948,4.9018,4.9137,4.9246,4.9427,4.9434,4.9522,4.9579,4.9657,4.9757,4.9655,4.966,4.9671,4.9928,4.9924,4.9944,4.9778,4.9782,4.9785,4.9917,0,4.8215,4.8441,4.852,4.8706,4.8824,4.8882,4.8992,4.9103,4.9179,4.9291,4.9375,4.9502,4.9501,4.9555,4.9634,4.9727,4.981,4.9719,4.9882,4.9887,4.9847,4.9968,4.9964,5.0083,4.9936,4.9939,4.9941,0,4.8382,4.8503,4.8701,4.8849,4.8901,4.8998,4.9139,4.9244,4.9372,4.9422,4.952,4.9572,4.9707,4.9677,4.9865,4.9801,4.9873,4.9928,4.9935,4.9955,4.992,4.9993,5.0123,5.0141,4.997,4.9968,4.9966,0,4.8419,4.8631,4.8777,4.8842,4.9017,4.9084,4.9161,4.9286,4.9369,4.9492,4.9547,4.9684,4.976,4.9865,4.9953,4.9923,5.0134,5.0111,5.018,5.0178,5.0224,5.022,5.0369,5.0266,5.0266,5.0265,5.0265,0,4.8542,4.8661,4.8796,4.8887,4.9022,4.9112,4.9244,4.9325,4.9436,4.9543,4.9602,4.9702,4.9811,4.9925,4.9995,5.0141,5.0174,5.0219,5.0237,5.0216,5.021,5.0265,5.026,5.027,5.0269,5.0268,5.0267,0,4.8607,4.8701,4.8865,4.9018,4.9059,4.9152,4.9284,4.9374,4.9452,4.9588,4.9625,4.9747,4.9886,4.9983,5.016,5.0207,5.0366,5.0381,5.0322,5.0331,5.0396,5.0389,5.0587,5.0619,5.0492,5.0493,5.0494,0,4.868,4.8773,4.8935,4.9011,4.9087,4.9209,4.9294,4.9385,4.9472,4.9625,4.9697,4.9839,4.9958,5.0176,5.0282,5.0418,5.0439,5.0499,5.046,5.0436,5.0443,5.0437,5.0447,5.0505,5.0506,5.0507,5.0507,0,4.8801,4.8843,4.8962,4.9099,4.9198,4.931,4.9422,4.9481,4.9593,4.9687,4.9829,4.992,5.0102,5.0243,5.0389,5.047,5.0508,5.0518,5.0542,5.0523,5.0485,5.0508,5.034,5.0514,5.0513,5.0513,5.0513,5.0512,4.8874,4.896,4.9088,4.9219,4.9313,4.9417,4.951,4.9599,4.9718,4.9872,4.9919,5.0066,5.0193,5.0394,5.0476,5.0594,5.0591,5.0624,5.0633,5.0641,5.0641,5.0464,5.0621,5.0621,5.0621,5.0621,5.0621,0,4.9,4.9084,4.9204,4.9359,4.9463,4.9488,4.9614,4.97,4.9828,4.9943,5.0058,5.0221,5.0358,5.0474,5.0616,5.0688,5.0709,5.0722,5.0719,5.0738,5.0635,5.0601,5.0703,5.0703,5.0703,5.0703,5.0703,5.0703,4.9077,4.9224,4.9282,4.9477,4.9561,4.9705,4.9775,4.9872,4.9964,5.0143,5.0257,5.0331,5.0447,5.0598,5.0725,5.0756,5.0807,5.0816,5.0851,5.0754,5.0744,5.0735,5.0704,5.0826,5.0826,5.0944,5.0945,5.0946]}]]